Weather in Sadska

Czech Republic     50°08′07″N   14°59′07″E
temp.,
°C
wind,
m/s
gust,
m/s
humid.,
%
clouds,
%
prec.,
mm/h
press.,
hPa
HPBL,
m
18 june, fri
fri1823:00+19ese35812 0.0 101763
02:00+17e46825 0.0 101785
05:00+16e47825 0.0 1017111
08:00+21ese596710 0.0 1017340
11:00+27se79460 0.0 10161526
14:00+29se67400 0.0 10161958
17:00+28sse56460 0.0 10151645
20:00+24se36680 0.0 1015140
19 june, sat
sat1923:00+19ese22830 0.0 101618
02:00+18e34820 0.0 101663
05:00+16ese33850 0.0 101629
08:00+21ese33680 0.0 1016227
11:00+27se22530 0.0 1015703
14:00+30e114282 0.0 10141487
17:00+30e22385 0.0 10131729
20:00+26e115933 0.0 101311
20 june, sun
sun2023:00+19wnw1286100 0.0 101416
02:00+19sse1184100 0.0 101311
05:00+18ese11904 0.0 101215
08:00+22e22730 0.0 1012279
11:00+28se33550 0.0 1011814
14:00+31ese334493 0.0 10091778
17:00+31ese3344100 0.0 10081992
20:00+26se3768100 0.0 1007147
21 june, mon
mon2123:00+22ese368128 0.0 100791
02:00+19sw4695100 4.0 1008186
05:00+16wsw2392100 0.1 100761
08:00+19sw3581100 0.1 1008424
11:00+20nw127534 0.0 1008333
14:00+26nw33529 0.0 10071102
17:00+27wnw234637 0.0 10071272
20:00+25w22630 0.0 100724
22 june, tue
tue2223:00+20ne227498 0.0 100815
02:00+18nw228755 1.4 100916
05:00+18wnw1189100 0.0 101012
08:00+20ene0081100 0.0 1011155
11:00+25wnw01629 0.0 1011723
14:00+29ene234712 0.0 10101765
17:00+29sse235099 0.1 10101110
20:00+22ne478673 4.7 1010175